Regional Weather Roundup
Issued by NWS

Home | Current Version | Previous Version | Text Only | Print | Product List | Glossary On
Versions: 1 2 3 4 5 6 7 8 9 10 11 12 13 14 15 16 17 18 19 20 21 22 23 24 25 26 27 28 29 30 31 32 33 34 35 36 37 38 39 40 41 42 43 44 45 46 47 48 49 50
180
ASUS43 KTOP 112259
RWRKS

WEATHER ROUNDUP FOR KANSAS
NATIONAL WEATHER SERVICE GOODLAND KS
500 PM CST THU FEB 11 2016

NOTE:  "FAIR" INDICATES FEW OR NO CLOUDS BELOW 12,000 FEET WITH NO
SIGNIFICANT WEATHER AND/OR OBSTRUCTIONS TO VISIBILITY.

KSZ001>006-013>018-027>032-041>047-120000-
NORTHWEST KANSAS

CITY           SKY/WX    TMP DP  RH WIND       PRES   REMARKS
GOODLAND       CLOUDY    54  30  40 N10       30.11R
HAYS           SUNNY     52  28  40 S8        30.09R
HILL CITY      SUNNY     53  36  52 CALM      30.07S
RUSSELL        SUNNY     43  32  65 SE13      30.08F
$$

KSZ061>065-074>080-084>089-120000-
SOUTHWEST KANSAS

CITY           SKY/WX    TMP DP  RH WIND       PRES   REMARKS
DODGE CITY     SUNNY     58  29  33 SW14      30.08S
ELKHART          N/A     70  22  16 S9          N/A
GARDEN CITY    SUNNY     64  28  25 SW12      30.06S
GREAT BEND     SUNNY     52  30  43 S8        30.09F
LIBERAL        SUNNY     66  30  26 SW9       30.10R
$$

KSZ066>073-081>083-090>101-120000-
SOUTHEAST KANSAS

CITY           SKY/WX    TMP DP  RH WIND       PRES   REMARKS
CHANUTE        PTCLDY    44  24  45 E6        30.17R
COFFEYVILLE    CLOUDY    47  25  42 E5        30.16F
HUTCHINSON     SUNNY     47  26  44 S5        30.14S
MEDICINE LODGE   N/A     52  28  39 SE7       30.12F
NEWTON         SUNNY     45  25  45 S6        30.16S
PARSONS        CLOUDY    47  25  42 NE5       30.18R
WICHITA INTL   PTSUNNY   47  26  44 S3        30.14F
WICHITA JABRA  SUNNY     49  24  37 SE6       30.13F
WINFIELD       MOSUNNY   51  25  36 CALM      30.16S
$$

KSZ007>012-019>026-033>040-048>060-102>105-120000-
NORTHEAST KANSAS

CITY           SKY/WX    TMP DP  RH WIND       PRES   REMARKS
CONCORDIA      MOSUNNY   32  25  75 S12       30.14R WCI  23
EMPORIA        PTCLDY    42  23  46 VRB3      30.16S
LAWRENCE       PTCLDY    38  22  52 SE3       30.20F
MANHATTAN      PTCLDY    42  24  49 S7        30.14F
OLATHE IND     PTCLDY    37  22  54 SE8       30.18F
OLATHE EXE     CLOUDY    36  21  54 SE8       30.19F
SALINA         SUNNY     44  26  49 S5        30.14F
TOPEKA BILLARD CLOUDY    40  21  46 SE6       30.19F
TOPEKA FORBES  CLOUDY    41  23  48 S7        30.17F
$$




USA.gov is the U.S. government's official web portal to all federal, state and local government web resources and services.